Torna al catalogo

STARLINK-37840

AttivoComunicazioniVLEO
NORAD 69965·PAYLOAD·🇺🇸 United States

Lanciato Jul 9, 2026 da Cape Canaveral Space Force Station

Loading…

Prossimi Passaggi (prossime 24 ore)

TLE

AggiornatoSource: CelesTrak SupGP

Epoca: Sep 15, 2026, 03:43 UTC

1 69965C 26157Y   26258.15534722  .00077977  00000+0  23048-2 0  2581
2 69965  53.1599 358.6409 0001166  90.6923 257.7681 15.34338412    18

Traccia STARLINK-37840 in tempo reale con AllMySat

Download on the App Store